Weather in Pokolbin

Australia     32°48′21″S   151°16′45″E
temp.,
°C
wind,
m/s
gust,
m/s
humid.,
%
clouds,
%
prec.,
mm/h
press.,
hPa
HPBL,
m
24 may, tue
tue2401:00+12ssw119960 0.9 102825
04:00+12sw119871 1.0 102750
07:00+12s119984 1.2 102766
10:00+13s249792 3.4 1028282
13:00+16s257727 1.4 1025791
16:00+16sse27805 1.9 1025755
19:00+13se289518 0.3 1026403
22:00+13ssw1393100 0.3 102696
25 may, wed
wed2501:00+13sw1191100 0.0 102530
04:00+13sw1191100 0.0 102446
07:00+12sw119299 0.0 102557
10:00+16s127176 0.0 1024570
13:00+18e1161100 0.0 10221203
16:00+16ese1179100 0.1 102126
19:00+12s1195100 0.0 102225
22:00+12ssw1196100 0.0 102217
26 may, thu
thu2601:00+11ssw1198100 0.0 102113
04:00+11sw1198100 0.0 102117
07:00+10wsw1198100 0.0 102216
10:00+16n007665 0.0 1022450
13:00+19ene11625 0.0 1019974
16:00+17e12765 0.0 1019104
19:00+12se11985 0.0 102027
22:00+12s11985 0.0 102016
27 may, fri
fri2701:00+11ssw11986 0.0 102011
04:00+10w119812 0.0 101911
07:00+10w119916 0.0 102012
10:00+16nw12776 0.0 1020391
13:00+20ne11610 0.0 1017835
16:00+18ene12740 0.0 101659
19:00+12se11950 0.0 101713
22:00+12wsw11985 0.1 101610
28 may, sat
sat2801:00+11wnw1198100 0.0 101514
04:00+10wnw11989 0.0 101430
07:00+10wnw22987 0.0 101546
10:00+16nw24700 0.0 1014395
13:00+20nw34524 0.0 10111260
16:00+17wnw25802 0.4 1010152
19:00+14wsw24845 0.0 1011102
22:00+9w228949 0.0 101227